EW9154 Weather Reports


time (UTC)temp
F
wind
direction
speed
knots
gust
knots
rain 1hr
in
rain 24hr
in
rain mn
in
humidity
%
barometer
mb
20260503203637 77 251 0.0 2.6 0.00 0.00 0.00 23 1019.2
20260503203111 76 221 0.0 2.6 0.00 0.00 0.00 24 1019.3
20260503202609 76 296 0.0 5.2 0.00 0.00 0.00 25 1019.4
20260503202107 76 197 0.0 5.2 0.00 0.00 0.00 23 1019.4
20260503201605 76 265 0.0 1.7 0.00 0.00 0.00 26 1019.4
20260503201333 75 263 0.0 1.7 0.00 0.00 0.00 23 1019.5
20260503200559 75 343 0.0 0.9 0.00 0.00 0.00 25 1019.6
20260503195541 75 249 0.0 1.7 0.00 0.00 0.00 24 1019.8
20260503195041 74 331 0.0 1.7 0.00 0.00 0.00 25 1019.8
20260503194543 74 0 0.0 5.2 0.00 0.00 0.00 24 1019.8
20260503194538 74 265 0.0 5.2 0.00 0.00 0.00 25 1020.0
20260503193809 74 355 0.0 1.7 0.00 0.00 0.00 26 1020.0
20260503193034 75 342 0.0 1.7 0.00 0.00 0.00 26 1020.0
20260503192518 75 310 0.0 5.2 0.00 0.00 0.00 23 1020.0
20260503192019 75 246 0.0 1.7 0.00 0.00 0.00 23 1020.0
20260503191455 75 278 0.0 7.8 0.00 0.00 0.00 25 1020.0
20260503190942 75 229 0.0 3.5 0.00 0.00 0.00 25 1020.0
20260503190936 74 252 0.0 7.8 0.00 0.00 0.00 25 1019.8
20260503190418 75 236 0.0 1.7 0.00 0.00 0.00 27 1020.1
20260503185418 75 300 0.0 1.7 0.00 0.00 0.00 27 1020.1
20260503184852 75 331 0.0 1.7 0.00 0.00 0.00 28 1020.0
20260503184328 75 267 0.0 8.7 0.00 0.00 0.00 29 1020.1
20260503183801 75 190 0.0 8.7 0.00 0.00 0.00 26 1020.2
20260503183237 75 228 0.0 0.0 0.00 0.00 0.00 28 1020.2
20260503182713 74 300 0.0 0.9 0.00 0.00 0.00 29 1020.2
20260503182430 74 299 0.0 0.9 0.00 0.00 0.00 26 1020.3
20260503181656 74 267 0.0 0.0 0.00 0.00 0.00 28 1020.2
20260503181159 74 304 0.0 0.9 0.00 0.00 0.00 28 1020.4
20260503180651 74 294 0.0 0.9 0.00 0.00 0.00 28 1020.4
20260503180150 74 0 0.0 1.7 0.00 0.00 0.00 30 1020.4
20260503175649 74 149 0.0 1.7 0.00 0.00 0.00 30 1020.4
20260503175147 73 306 0.0 1.7 0.00 0.00 0.00 31 1020.4
20260503174648 72 273 0.0 1.7 0.00 0.00 0.00 32 1020.5
20260503174126 73 11 0.0 0.9 0.00 0.00 0.00 31 1020.5
20260503173624 72 278 0.0 0.9 0.00 0.00 0.00 32 1020.5
20260503173122 72 267 0.0 3.5 0.00 0.00 0.00 34 1020.5
20260503172620 72 303 0.0 4.3 0.00 0.00 0.00 30 1020.5
20260503172117 71 286 0.0 4.3 0.00 0.00 0.00 33 1020.5
20260503171615 72 229 0.0 2.6 0.00 0.00 0.00 34 1020.6
20260503171114 72 261 0.0 2.6 0.00 0.00 0.00 33 1020.5
20260503170825 72 334 0.0 2.6 0.00 0.00 0.00 36 1020.6
20260503170546 71 344 0.0 1.7 0.00 0.00 0.00 38 1020.6
20260503150631 64 355 0.0 2.6 0.00 0.00 0.00 42 1020.1
20260503150104 64 330 0.0 0.0 0.00 0.00 0.00 42 1020.1
20260503131142 54 233 0.0 0.0 0.00 0.00 0.00 56 1019.2
20260503130618 53 232 0.0 0.0 0.00 0.00 0.00 57 1019.1
20260503110631 53 194 1.7 10.4 0.00 0.00 0.00 52 1017.7
20260503110107 53 194 1.7 10.4 0.00 0.00 0.00 51 1017.7
20260503090449 56 170 1.7 10.4 0.00 0.00 0.00 47 1018.6
20260503081546 57 197 3.5 10.4 0.00 0.00 0.00 45 1018.8
20260503081023 57 223 2.6 13.9 0.00 0.00 0.00 45 1018.8
20260503080732 57 154 3.5 13.9 0.00 0.00 0.00 45 1018.9
20260503072821 58 209 1.7 8.7 0.00 0.00 0.00 46 1019.4
20260503072305 58 215 0.9 7.8 0.00 0.00 0.00 46 1019.5
20260503071803 59 197 1.7 10.4 0.00 0.00 0.00 47 1019.7
20260503071256 59 239 2.6 10.4 0.00 0.00 0.00 47 1019.8
20260503070756 59 186 0.9 9.6 0.00 0.00 0.00 47 1019.8
20260503070528 59 188 1.7 9.6 0.00 0.00 0.00 48 1020.0
20260503060256 59 261 2.6 14.8 0.00 0.00 0.00 50 1020.9
20260503054411 59 225 1.7 13.9 0.00 0.00 0.00 46 1021.4
20260503053912 58 201 0.0 7.0 0.00 0.00 0.00 46 1021.5
20260503053358 58 223 0.0 7.0 0.00 0.00 0.00 46 1021.6
20260503053106 58 225 0.0 4.3 0.00 0.00 0.00 46 1021.6
20260503052306 57 215 0.0 5.2 0.00 0.00 0.00 47 1021.5
20260503051740 57 211 0.0 5.2 0.00 0.00 0.00 47 1021.6
20260503051213 57 203 0.0 4.3 0.00 0.00 0.00 48 1021.6
20260503050649 57 201 0.0 4.3 0.00 0.00 0.00 48 1021.5
20260503050141 57 225 0.0 2.6 0.00 0.00 0.00 47 1021.5
20260503045628 57 188 0.0 4.3 0.00 0.00 0.00 47 1021.5
20260503045105 57 190 0.0 4.3 0.00 0.00 0.00 47 1021.5
20260503044542 57 205 0.0 2.6 0.00 0.00 0.00 46 1021.5
20260503044253 58 211 0.0 3.5 0.00 0.00 0.00 46 1021.6
20260503043514 58 246 0.0 7.0 0.00 0.00 0.00 46 1021.7
20260503043226 58 218 0.0 7.8 0.00 0.00 0.00 45 1021.9
20260503043059 58 196 0.0 7.0 0.00 0.00 0.00 45 1021.8
20260503041933 58 219 0.0 7.8 0.00 0.00 0.00 45 1021.9
20260503041411 58 186 0.0 6.1 0.00 0.00 0.00 45 1022.0
20260503040910 58 186 0.0 5.2 0.00 0.00 0.00 44 1021.9
20260503040408 58 207 0.0 2.6 0.00 0.00 0.00 44 1022.1
20260503035900 58 213 0.0 0.9 0.00 0.00 0.00 44 1022.2
20260503035336 59 217 0.0 6.1 0.00 0.00 0.00 44 1022.4
20260503034815 59 192 0.0 6.1 0.00 0.00 0.00 43 1022.5
20260503034314 59 200 0.0 5.2 0.00 0.00 0.00 42 1022.7
20260503033756 60 173 0.0 0.9 0.00 0.00 0.00 41 1022.7
20260503033752 60 172 0.0 5.2 0.00 0.00 0.00 42 1022.7
20260503033025 60 173 0.0 0.0 0.00 0.00 0.00 41 1022.8
20260503032251 60 202 0.0 0.0 0.00 0.00 0.00 40 1022.9
20260503031751 61 178 0.0 0.0 0.00 0.00 0.00 40 1023.0
20260503031251 61 209 0.0 1.7 0.00 0.00 0.00 40 1023.1
20260503030728 61 216 0.0 1.7 0.00 0.00 0.00 39 1023.2
20260503030159 62 221 0.0 0.9 0.00 0.00 0.00 39 1023.3
20260503025657 62 200 0.0 7.0 0.00 0.00 0.00 39 1023.4
20260503025157 62 207 0.0 7.0 0.00 0.00 0.00 39 1023.4
20260503024634 62 240 0.0 7.0 0.00 0.00 0.00 39 1023.5
20260503024614 62 177 0.0 4.3 0.00 0.00 0.00 39 1023.7
20260503023820 62 211 0.0 1.7 0.00 0.00 0.00 40 1023.8
20260503023022 61 211 0.0 1.7 0.00 0.00 0.00 40 1024.0
20260503022733 62 230 0.0 1.7 0.00 0.00 0.00 39 1024.0
20260503022616 62 225 0.0 3.5 0.00 0.00 0.00 39 1024.0
20260503021457 62 224 0.0 3.5 0.00 0.00 0.00 39 1024.1
20260503020959 62 233 0.0 7.8 0.00 0.00 0.00 39 1024.1
20260503020428 62 233 0.0 7.8 0.00 0.00 0.00 38 1024.1
20260503015905 62 223 0.0 0.0 0.00 0.00 0.00 38 1024.1
20260503015346 62 223 0.0 0.0 0.00 0.00 0.00 38 1024.0
20260503014821 63 224 0.9 7.8 0.00 0.00 0.00 38 1024.0
20260503014254 63 223 1.7 12.2 0.00 0.00 0.00 37 1024.1
20260503013728 63 227 0.9 12.2 0.00 0.00 0.00 38 1024.3
20260503013223 63 214 0.9 8.7 0.00 0.00 0.00 37 1024.3
20260503012719 63 219 1.7 9.6 0.00 0.00 0.00 36 1024.2
20260503012204 63 200 2.6 13.9 0.00 0.00 0.00 36 1024.4
20260503011635 63 232 0.9 13.9 0.00 0.00 0.00 35 1024.3
20260503011133 63 218 0.0 6.1 0.00 0.00 0.00 34 1024.3
20260503010630 64 242 0.0 6.1 0.00 0.00 0.00 35 1024.2
20260503010610 64 226 0.9 7.8 0.00 0.00 0.00 35 1024.2
20260503005545 64 236 0.9 9.6 0.00 0.00 0.00 34 1024.1
20260503005006 64 229 0.9 9.6 0.00 0.00 0.00 35 1024.2
20260503004437 64 203 0.9 10.4 0.00 0.00 0.00 35 1024.3
20260503003914 64 223 0.0 10.4 0.00 0.00 0.00 34 1024.4
20260503003348 64 223 0.0 1.7 0.00 0.00 0.00 36 1024.4
20260503002823 64 242 0.0 0.0 0.00 0.00 0.00 36 1024.4
20260503002304 64 267 0.0 3.5 0.00 0.00 0.00 36 1024.4
20260503001800 64 321 0.9 11.3 0.00 0.00 0.00 36 1024.5
20260503001235 64 210 0.9 11.3 0.00 0.00 0.00 35 1024.3
20260503000705 64 196 0.9 7.8 0.00 0.00 0.00 36 1024.4
20260503000204 64 229 0.0 7.8 0.00 0.00 0.00 35 1024.8
20260502235638 65 215 0.0 0.0 0.00 0.00 0.00 35 1024.5
20260502235142 65 219 0.0 2.6 0.00 0.00 0.00 34 1024.4
20260502234613 65 238 0.0 13.0 0.00 0.00 0.00 34 1024.4
20260502234113 65 324 1.7 13.0 0.00 0.00 0.00 33 1024.4
20260502233544 65 229 0.9 16.5 0.00 0.00 0.00 34 1024.5
20260502233043 66 226 0.0 16.5 0.00 0.00 0.00 32 1024.5
20260502232540 66 233 0.0 8.7 0.00 0.00 0.00 32 1024.4
20260502232044 66 227 0.9 8.7 0.00 0.00 0.00 32 1024.4
20260502231540 66 225 0.9 9.6 0.00 0.00 0.00 31 1024.5
20260502231038 66 202 0.9 9.6 0.00 0.00 0.00 30 1024.6
20260502230510 66 215 0.9 10.4 0.00 0.00 0.00 31 1024.6
20260502230008 66 237 0.9 10.4 0.00 0.00 0.00 31 1024.6
20260502225452 66 209 0.0 1.7 0.00 0.00 0.00 30 1024.6
20260502224954 66 235 0.0 3.5 0.00 0.00 0.00 30 1024.8
20260502224425 67 221 0.0 4.3 0.00 0.00 0.00 30 1024.8
20260502223923 67 186 0.0 4.3 0.00 0.00 0.00 30 1024.9
20260502223420 67 216 0.0 7.8 0.00 0.00 0.00 30 1024.9
20260502222918 67 203 0.0 7.8 0.00 0.00 0.00 29 1025.0
20260502222352 67 215 0.9 7.8 0.00 0.00 0.00 29 1025.0
20260502222111 68 223 0.9 7.8 0.00 0.00 0.00 30 1025.0
20260502221338 68 223 1.7 8.7 0.00 0.00 0.00 29 1025.1
20260502220833 68 225 0.9 8.7 0.00 0.00 0.00 29 1025.2
20260502220332 68 172 0.9 13.9 0.00 0.00 0.00 30 1025.2
20260502215817 68 221 1.7 13.9 0.00 0.00 0.00 29 1025.2
20260502215322 68 232 1.7 11.3 0.00 0.00 0.00 29 1025.4
20260502214802 69 223 0.9 11.3 0.00 0.00 0.00 28 1025.4
20260502214256 69 175 0.9 11.3 0.00 0.00 0.00 27 1025.4
20260502213727 69 223 0.9 7.8 0.00 0.00 0.00 28 1025.6
20260502213239 69 250 0.9 11.3 0.00 0.00 0.00 28 1025.7
20260502212721 68 239 0.9 13.9 0.00 0.00 0.00 29 1025.8
20260502212220 68 206 2.6 13.9 0.00 0.00 0.00 28 1025.8
20260502211659 67 222 3.5 13.0 0.00 0.00 0.00 29 1026.0
20260502211117 68 232 1.7 12.2 0.00 0.00 0.00 28 1026.0
20260502210617 68 218 2.6 11.3 0.00 0.00 0.00 28 1026.2
20260502210047 67 231 3.5 20.0 0.00 0.00 0.00 30 1026.2
20260502205815 67 221 3.5 20.0 0.00 0.00 0.00 31 1026.2
20260502205019 66 209 0.9 12.2 0.00 0.00 0.00 30 1026.4
20260502204521 66 230 0.9 8.7 0.00 0.00 0.00 30 1026.5
20260502204017 66 221 1.7 8.7 0.00 0.00 0.00 29 1026.6